Date,TemperatureHighF,TemperatureAvgF,TemperatureLowF,DewpointHighF,DewpointAvgF,DewpointLowF,HumidityHigh,HumidityAvg,HumidityLow,PressureMaxIn,PressureMinIn,WindSpeedMaxMPH,WindSpeedAvgMPH,GustSpeedMaxMPH,PrecipitationSumIn
2013-4-1,42.5,31.6,27.0,34.3,18.6,11.9,87,59,41,30.16,29.71,22,7,22,0.00
2013-4-2,39.3,30.6,24.4,17.6,14.6,12.3,75,53,35,30.31,30.15,19,5,19,0.00
2013-4-3,40.6,31.7,24.9,19.7,14.5,9.9,71,50,31,30.50,30.30,20,3,20,0.00
2013-4-4,55.6,40.3,26.3,22.6,18.0,13.7,75,45,20,30.43,30.00,12,2,12,0.00
2013-4-5,46.4,40.2,30.5,31.8,22.6,16.0,81,52,32,30.27,29.99,14,3,14,0.00
2013-4-6,49.0,38.3,28.5,28.0,21.6,16.6,75,53,34,30.32,29.86,17,3,17,0.00
2013-4-7,57.7,48.9,39.1,46.3,36.4,25.8,78,63,38,30.08,29.66,29,5,29,0.00
2013-4-8,63.9,44.6,34.1,55.8,40.0,30.4,95,84,62,30.09,29.76,26,3,26,0.10
2013-4-9,48.2,44.3,39.8,45.9,41.9,38.1,96,91,80,30.15,29.93,17,3,17,0.56
2013-4-10,43.5,40.7,37.4,42.7,39.6,36.1,97,96,94,30.09,29.89,12,3,21,0.34
2013-4-11,38.5,36.4,35.0,37.2,35.2,33.8,96,95,94,30.04,29.69,19,5,19,0.99
2013-4-12,41.4,37.8,34.6,39.8,35.3,33.3,97,91,77,29.82,29.58,17,3,17,0.22
2013-4-13,41.6,38.2,35.9,37.8,31.6,27.7,93,77,62,30.05,29.82,20,4,20,0.02
2013-4-14,46.4,38.9,31.7,38.0,32.0,27.3,87,76,62,30.18,30.02,11,2,11,0.01
2013-4-15,67.8,53.9,37.9,55.3,45.3,34.1,91,74,56,30.04,29.93,18,3,18,0.03
2013-4-16,60.6,53.7,47.1,54.4,43.7,33.6,94,71,42,30.27,29.90,15,3,15,0.03
2013-4-17,57.1,46.3,38.8,43.5,35.6,30.4,94,68,45,30.39,30.09,15,3,15,0.62
2013-4-18,78.1,57.2,43.0,65.0,53.8,41.6,96,89,61,30.09,29.60,30,4,30,0.61
2013-4-19,58.3,45.3,35.6,57.1,40.0,29.3,97,82,64,29.78,29.33,32,5,32,0.36
2013-4-20,38.1,33.9,29.3,31.7,23.0,16.6,91,65,51,30.51,29.77,23,6,23,0.00
2013-4-21,46.2,36.7,26.5,28.4,25.1,20.6,91,65,43,30.70,30.51,12,2,12,0.00
2013-4-22,60.0,46.3,31.5,36.8,30.9,25.1,93,59,30,30.55,30.25,12,1,12,0.00
2013-4-23,69.0,54.9,42.0,53.6,42.1,34.7,95,65,41,30.25,29.84,21,2,21,0.13
2013-4-24,54.7,40.2,34.2,53.6,37.7,29.0,96,91,71,30.17,29.76,20,4,20,0.62
2013-4-25,49.9,40.2,29.9,40.3,31.9,27.5,92,74,44,30.40,30.16,19,3,19,0.11
2013-4-26,57.2,46.3,32.6,37.4,33.1,29.1,92,62,41,30.52,30.39,16,2,16,0.00
2013-4-27,68.1,53.8,37.1,41.4,35.7,29.6,92,56,25,30.42,30.15,14,1,14,0.00
2013-4-28,55.4,52.1,49.9,52.2,45.1,32.8,97,79,50,30.15,29.88,9,1,9,0.24
2013-4-29,68.8,58.4,52.5,55.5,52.9,51.7,98,83,58,29.97,29.87,9,2,9,0.01
2013-4-30,70.5,60.9,52.6,57.8,54.4,51.2,96,80,60,30.12,29.97,18,2,18,0.18